Stündliche Wetter Juncza

Heute, 8 März, Montag

Zeit Temperatur Niederschläge Wind Luftdruck Luftfeuchtigkeit
00:00 -4°C° 0 mm 2 m/S 749 mmHg 78%
01:00 -4°C° 0 mm 2 m/S 749 mmHg 74%
02:00 -5°C° 0 mm 3 m/S 749 mmHg 74%
03:00 -5°C° 0 mm 3 m/S 749 mmHg 75%
04:00 -4°C° 0 mm 3 m/S 749 mmHg 76%
05:00 -4°C° 0 mm 3 m/S 750 mmHg 76%
06:00 -4°C° 0 mm 3 m/S 750 mmHg 77%
07:00 -4°C° 0 mm 3 m/S 751 mmHg 77%
08:00 -2°C° 0 mm 3 m/S 751 mmHg 71%
09:00 -2°C° 0 mm 4 m/S 752 mmHg 65%
10:00 -1°C° 0 mm 4 m/S 752 mmHg 60%
11:00 -1°C° 0.1 mm 4 m/S 752 mmHg 59%
12:00 0°C° 0.1 mm 4 m/S 753 mmHg 57%
13:00 0°C° 0.1 mm 4 m/S 753 mmHg 56%
14:00 0°C° 0.1 mm 4 m/S 753 mmHg 58%
15:00 -1°C° 0.1 mm 4 m/S 753 mmHg 60%
16:00 -1°C° 0.1 mm 4 m/S 753 mmHg 62%
17:00 -1°C° 0 mm 3 m/S 753 mmHg 68%
18:00 -2°C° 0 mm 2 m/S 753 mmHg 74%
19:00 -4°C° 0 mm 2 m/S 754 mmHg 81%
20:00 -4°C° 0 mm 2 m/S 754 mmHg 82%
21:00 -2°C° 0 mm 1 m/S 754 mmHg 83%
22:00 -2°C° 0 mm 1 m/S 754 mmHg 83%
23:00 -2°C° 0 mm 1 m/S 754 mmHg 83%

Morgen, 9 März, Dienstag

Zeit Temperatur Niederschläge Wind Luftdruck Luftfeuchtigkeit
00:00 -2°C° 0 mm 1 m/S 754 mmHg 82%
01:00 -1°C° 0 mm 1 m/S 754 mmHg 81%
02:00 -1°C° 0 mm 1 m/S 754 mmHg 80%
03:00 -1°C° 0 mm 1 m/S 753 mmHg 79%
04:00 -1°C° 0 mm 1 m/S 753 mmHg 78%
05:00 -1°C° 0 mm 1 m/S 753 mmHg 77%
06:00 -2°C° 0 mm 0 m/S 753 mmHg 75%
07:00 -2°C° 0 mm 0 m/S 753 mmHg 74%
08:00 -1°C° 0 mm 0 m/S 753 mmHg 69%
09:00 0°C° 0 mm 1 m/S 753 mmHg 63%
10:00 +1°C° 0 mm 1 m/S 753 mmHg 58%
11:00 +2°C° 0 mm 1 m/S 753 mmHg 54%
12:00 +2°C° 0 mm 1 m/S 753 mmHg 50%
13:00 +3°C° 0 mm 1 m/S 753 mmHg 46%
14:00 +3°C° 0 mm 1 m/S 753 mmHg 46%
15:00 +2°C° 0 mm 1 m/S 752 mmHg 47%
16:00 +2°C° 0 mm 1 m/S 752 mmHg 47%
17:00 +1°C° 0 mm 1 m/S 752 mmHg 52%
18:00 0°C° 0 mm 1 m/S 752 mmHg 58%
19:00 -1°C° 0 mm 1 m/S 752 mmHg 64%
20:00 -1°C° 0 mm 1 m/S 752 mmHg 65%
21:00 -1°C° 0 mm 1 m/S 752 mmHg 66%
22:00 -1°C° 0 mm 1 m/S 752 mmHg 67%
23:00 -1°C° 0 mm 1 m/S 752 mmHg 68%

übermorgen, 10 März, Mittwoch

Zeit Temperatur Niederschläge Wind Luftdruck Luftfeuchtigkeit
00:00 -1°C° 0 mm 1 m/S 752 mmHg 69%
01:00 -1°C° 0 mm 1 m/S 752 mmHg 70%
02:00 -1°C° 0 mm 1 m/S 752 mmHg 69%
03:00 -1°C° 0 mm 1 m/S 752 mmHg 69%
04:00 -1°C° 0 mm 1 m/S 752 mmHg 69%
05:00 -1°C° 0 mm 1 m/S 752 mmHg 67%
06:00 -1°C° 0 mm 1 m/S 752 mmHg 66%
07:00 -1°C° 0 mm 1 m/S 752 mmHg 64%
08:00 0°C° 0 mm 1 m/S 753 mmHg 57%
09:00 +2°C° 0 mm 1 m/S 753 mmHg 49%
10:00 +3°C° 0 mm 1 m/S 753 mmHg 41%
11:00 +4°C° 0 mm 1 m/S 753 mmHg 39%
12:00 +4°C° 0 mm 1 m/S 753 mmHg 36%
13:00 +4°C° 0 mm 2 m/S 753 mmHg 33%
14:00 +5°C° 0 mm 1 m/S 753 mmHg 36%
15:00 +4°C° 0 mm 1 m/S 753 mmHg 39%
16:00 +4°C° 0 mm 1 m/S 753 mmHg 42%
17:00 +3°C° 0 mm 1 m/S 753 mmHg 47%
18:00 +1°C° 0 mm 1 m/S 752 mmHg 52%
19:00 0°C° 0 mm 1 m/S 752 mmHg 57%
20:00 0°C° 0 mm 1 m/S 752 mmHg 59%
21:00 0°C° 0 mm 1 m/S 752 mmHg 60%
22:00 -3°C° 0 mm 2 m/S 752 mmHg 62%
23:00 -3°C° 0 mm 2 m/S 752 mmHg 61%

11 März, Donnerstag

Zeit Temperatur Niederschläge Wind Luftdruck Luftfeuchtigkeit
00:00 -4°C° 0 mm 3 m/S 751 mmHg 61%
01:00 -4°C° 0 mm 3 m/S 751 mmHg 60%
02:00 -2°C° 0 mm 3 m/S 750 mmHg 60%
03:00 -3°C° 0 mm 4 m/S 749 mmHg 60%
04:00 -3°C° 0 mm 4 m/S 748 mmHg 59%
05:00 -2°C° 0 mm 5 m/S 747 mmHg 59%
06:00 -2°C° 0 mm 5 m/S 746 mmHg 59%
07:00 -3°C° 0 mm 6 m/S 745 mmHg 59%
08:00 -2°C° 0.1 mm 6 m/S 745 mmHg 68%
09:00 -2°C° 0.1 mm 7 m/S 744 mmHg 76%
10:00 -2°C° 0.1 mm 7 m/S 743 mmHg 84%
11:00 -1°C° 0.7 mm 7 m/S 743 mmHg 88%
12:00 -1°C° 0.7 mm 7 m/S 742 mmHg 92%
13:00 -1°C° 0.7 mm 7 m/S 741 mmHg 96%
14:00 -1°C° 0.8 mm 7 m/S 740 mmHg 96%
15:00 0°C° 0.8 mm 7 m/S 739 mmHg 96%
16:00 +1°C° 0.8 mm 6 m/S 738 mmHg 95%
17:00 +2°C° 0.8 mm 6 m/S 738 mmHg 95%
18:00 +2°C° 0.8 mm 6 m/S 737 mmHg 95%
19:00 +3°C° 0.8 mm 6 m/S 736 mmHg 95%
20:00 +3°C° 0.7 mm 6 m/S 737 mmHg 92%
21:00 +3°C° 0.7 mm 6 m/S 737 mmHg 89%
22:00 +2°C° 0.7 mm 5 m/S 737 mmHg 87%
23:00 +2°C° 0 mm 5 m/S 738 mmHg 88%

12 März, Freitag

Zeit Temperatur Niederschläge Wind Luftdruck Luftfeuchtigkeit
00:00 +1°C° 0 mm 5 m/S 738 mmHg 89%
01:00 +1°C° 0 mm 5 m/S 738 mmHg 89%
02:00 +1°C° 0 mm 5 m/S 738 mmHg 89%
03:00 +1°C° 0 mm 5 m/S 738 mmHg 89%
04:00 +1°C° 0 mm 5 m/S 738 mmHg 89%
05:00 +1°C° 0.1 mm 6 m/S 738 mmHg 89%
06:00 +1°C° 0.1 mm 6 m/S 739 mmHg 88%
07:00 +1°C° 0.1 mm 6 m/S 739 mmHg 88%
08:00 +2°C° 0.1 mm 7 m/S 739 mmHg 83%
09:00 +2°C° 0.1 mm 7 m/S 740 mmHg 78%
10:00 +2°C° 0.1 mm 8 m/S 740 mmHg 73%
11:00 +2°C° 0.1 mm 8 m/S 741 mmHg 71%
12:00 +2°C° 0.1 mm 8 m/S 741 mmHg 69%
13:00 +4°C° 0.1 mm 8 m/S 741 mmHg 67%
14:00 +4°C° 0 mm 7 m/S 741 mmHg 66%
15:00 +4°C° 0 mm 7 m/S 741 mmHg 65%
16:00 +4°C° 0 mm 6 m/S 741 mmHg 64%
17:00 +3°C° 0 mm 6 m/S 741 mmHg 68%
18:00 +2°C° 0 mm 5 m/S 741 mmHg 72%
19:00 +3°C° 0 mm 4 m/S 741 mmHg 76%
20:00 +2°C° 0.1 mm 5 m/S 741 mmHg 78%
21:00 +2°C° 0.1 mm 5 m/S 741 mmHg 79%
22:00 +2°C° 0.1 mm 5 m/S 741 mmHg 81%
23:00 +2°C° 0 mm 5 m/S 741 mmHg 83%

13 März, Samstag

Zeit Temperatur Niederschläge Wind Luftdruck Luftfeuchtigkeit
00:00 +2°C° 0 mm 5 m/S 740 mmHg 85%
01:00 +2°C° 0 mm 6 m/S 740 mmHg 86%
02:00 +2°C° 0.1 mm 6 m/S 739 mmHg 86%
03:00 +2°C° 0.1 mm 6 m/S 739 mmHg 85%
04:00 +2°C° 0.1 mm 7 m/S 739 mmHg 84%
05:00 +2°C° 0.6 mm 6 m/S 739 mmHg 86%
06:00 +2°C° 0.6 mm 5 m/S 739 mmHg 88%
07:00 +2°C° 0.6 mm 5 m/S 739 mmHg 90%
08:00 +2°C° 0.1 mm 5 m/S 739 mmHg 85%
09:00 +3°C° 0.1 mm 5 m/S 740 mmHg 79%
10:00 +4°C° 0.1 mm 6 m/S 740 mmHg 74%
11:00 +5°C° 0 mm 5 m/S 740 mmHg 70%
12:00 +6°C° 0 mm 5 m/S 740 mmHg 66%
13:00 +7°C° 0 mm 5 m/S 740 mmHg 62%
14:00 +6°C° 0 mm 5 m/S 739 mmHg 66%
15:00 +6°C° 0 mm 5 m/S 739 mmHg 70%
16:00 +6°C° 0 mm 5 m/S 738 mmHg 74%
17:00 +5°C° 0.1 mm 5 m/S 738 mmHg 78%
18:00 +5°C° 0.1 mm 5 m/S 738 mmHg 83%
19:00 +3°C° 0.1 mm 5 m/S 737 mmHg 87%
20:00 +3°C° 0.2 mm 5 m/S 737 mmHg 88%
21:00 +3°C° 0.2 mm 5 m/S 736 mmHg 88%
22:00 +3°C° 0.2 mm 5 m/S 736 mmHg 89%
23:00 +4°C° 0.2 mm 4 m/S 736 mmHg 89%
Mehr zeigen

Wir brauchen deine Erlaubnis

Meteoprog und unser Service Anbieter werden persönliche Daten aufbewahren, so wie Cookies, Geräte Bezeichnung oder ähnliche Technologien von deinem Gerät und Prozess, so wie Persönliche Daten Inhalte und Werbungen, genauso wie social Media und den Verkehr zu analysieren.

  • Aufbewahrung und/oder Zugang zu deiner Geräte Informationen.

    Cookies, Geräte Bezeichnung oder andere Informationen, können aufbewahrt oder Zugang zu deinem Gerät erhalten, für den Grund, der oben angegeben wird.

  • Personalisierte Werbung und Inhalte, Messungen, Einblick in das Publikum und Produkt Entwicklung.

    Werbungen und Inhalte können personalisiert werden, basierend auf ein Profil. Mehr Daten können besser personalisierte Werbungen und Inhalte hinzufügen. Werbung und Inhalte können gezeigt und gemessen werden. Einblicke über das Publikum, welche die Werbung gesehen haben und den Inhalt, können abgeleitet werden. So wie Daten können genutzt werden, um es zu verbessern oder die Benutzer Erfahrung zu verbessern das System und die Software.

Wenn du “Ich stimme zu” klickst, erlaubst du uns, die Cookies zu benutzen die Geräte Bezeichnung, den Web oder ähnliche Technologien zu benutzen. Deine Settings, können in deinem Gerät bei deinem Browser geändert werden.

Für den bestimmten Zweck, berechtigten Interessen beruhen darauf, mehr als auf den Inhalt. Du kannst mehr darüber in unseren Privaten und Cookie Politik lesen.